Year,Month,Day,Hour,Minute,Value (Times are PST for temperature in C)
2009,06,17,00,00,16.20
2009,06,17,00,01,16.20
2009,06,17,00,02,16.20
2009,06,17,00,03,16.20
2009,06,17,00,04,16.20
2009,06,17,00,05,16.20
2009,06,17,00,06,16.20
2009,06,17,00,07,16.10
2009,06,17,00,08,16.10
2009,06,17,00,09,16.10
2009,06,17,00,10,16.10
2009,06,17,00,11,16.10
2009,06,17,00,12,16.10
2009,06,17,00,13,16.10
2009,06,17,00,14,16.10
2009,06,17,00,15,16.10
2009,06,17,00,16,16.10
2009,06,17,00,17,16.10
2009,06,17,00,18,16.10
2009,06,17,00,19,16.10
2009,06,17,00,20,16.10
2009,06,17,00,21,16.00
2009,06,17,00,22,15.90
2009,06,17,00,23,15.90
2009,06,17,00,24,15.90
2009,06,17,00,25,15.90
2009,06,17,00,26,15.90
2009,06,17,00,27,15.90
2009,06,17,00,28,15.90
2009,06,17,00,29,15.90
2009,06,17,00,30,15.90
2009,06,17,00,31,15.90
2009,06,17,00,32,15.90
2009,06,17,00,33,15.90
2009,06,17,00,34,15.90
2009,06,17,00,35,15.90
2009,06,17,00,36,15.90
2009,06,17,00,37,15.90
2009,06,17,00,38,15.90
2009,06,17,00,39,15.90
2009,06,17,00,40,15.90
2009,06,17,00,41,15.80
2009,06,17,00,42,15.80
2009,06,17,00,43,15.80
2009,06,17,00,44,15.80
2009,06,17,00,45,15.80
2009,06,17,00,46,15.80
2009,06,17,00,47,15.80
2009,06,17,00,48,15.80
2009,06,17,00,49,15.80
2009,06,17,00,50,15.80
2009,06,17,00,51,15.70
2009,06,17,00,52,15.70
2009,06,17,00,53,15.70
2009,06,17,00,54,15.70
2009,06,17,00,55,15.70
2009,06,17,00,56,15.70
2009,06,17,00,57,15.70
2009,06,17,00,58,15.70
2009,06,17,00,59,15.60
2009,06,17,01,00,15.60
2009,06,17,01,01,15.60
2009,06,17,01,02,15.60
2009,06,17,01,03,15.60
2009,06,17,01,04,15.60
2009,06,17,01,05,15.60
2009,06,17,01,06,15.60
2009,06,17,01,07,15.60
2009,06,17,01,08,15.60
2009,06,17,01,09,15.60
2009,06,17,01,10,15.60
2009,06,17,01,11,15.60
2009,06,17,01,12,15.60
2009,06,17,01,13,15.60
2009,06,17,01,14,15.60
2009,06,17,01,15,15.60
2009,06,17,01,16,15.60
2009,06,17,01,17,15.60
2009,06,17,01,18,15.60
2009,06,17,01,19,15.50
2009,06,17,01,20,15.50
2009,06,17,01,21,15.40
2009,06,17,01,22,15.40
2009,06,17,01,23,15.40
2009,06,17,01,24,15.40
2009,06,17,01,25,15.30
2009,06,17,01,26,15.30
2009,06,17,01,27,15.30
2009,06,17,01,28,15.20
2009,06,17,01,29,15.20
2009,06,17,01,30,15.20
2009,06,17,01,31,15.20
2009,06,17,01,32,15.20
2009,06,17,01,33,15.20
2009,06,17,01,34,15.20
2009,06,17,01,35,15.20
2009,06,17,01,36,15.20
2009,06,17,01,37,15.20
2009,06,17,01,38,15.20
2009,06,17,01,39,15.20
2009,06,17,01,40,15.20
2009,06,17,01,41,15.20
2009,06,17,01,42,15.30
2009,06,17,01,43,15.30
2009,06,17,01,44,15.30
2009,06,17,01,45,15.30
2009,06,17,01,46,15.20
2009,06,17,01,47,15.20
2009,06,17,01,48,15.20
2009,06,17,01,49,15.20
2009,06,17,01,50,15.20
2009,06,17,01,51,15.20
2009,06,17,01,52,15.20
2009,06,17,01,53,15.20
2009,06,17,01,54,15.20
2009,06,17,01,55,15.20
2009,06,17,01,56,15.20
2009,06,17,01,57,15.10
2009,06,17,01,58,15.10
2009,06,17,01,59,15.10
2009,06,17,02,00,15.10
2009,06,17,02,01,15.10
2009,06,17,02,02,15.10
2009,06,17,02,03,15.10
2009,06,17,02,04,15.10
2009,06,17,02,05,15.10
2009,06,17,02,06,15.10
2009,06,17,02,07,15.10
2009,06,17,02,08,15.10
2009,06,17,02,09,15.10
2009,06,17,02,10,15.10
2009,06,17,02,11,15.10
2009,06,17,02,12,15.10
2009,06,17,02,13,15.10
2009,06,17,02,14,15.10
2009,06,17,02,15,15.10
2009,06,17,02,16,15.10
2009,06,17,02,17,15.10
2009,06,17,02,18,15.10
2009,06,17,02,19,15.10
2009,06,17,02,20,15.10
2009,06,17,02,21,15.10
2009,06,17,02,22,15.10
2009,06,17,02,23,15.10
2009,06,17,02,24,15.10
2009,06,17,02,25,15.10
2009,06,17,02,26,15.20
2009,06,17,02,27,15.20
2009,06,17,02,28,15.20
2009,06,17,02,29,15.20
2009,06,17,02,30,15.20
2009,06,17,02,31,15.20
2009,06,17,02,32,15.20
2009,06,17,02,33,15.20
2009,06,17,02,34,15.20
2009,06,17,02,35,15.20
2009,06,17,02,36,15.20
2009,06,17,02,37,15.20
2009,06,17,02,38,15.20
2009,06,17,02,39,15.20
2009,06,17,02,40,15.20
2009,06,17,02,41,15.20
2009,06,17,02,42,15.20
2009,06,17,02,43,15.20
2009,06,17,02,44,15.20
2009,06,17,02,45,15.20
2009,06,17,02,46,15.10
2009,06,17,02,47,15.10
2009,06,17,02,48,15.10
2009,06,17,02,49,15.00
2009,06,17,02,50,15.00
2009,06,17,02,51,14.90
2009,06,17,02,52,14.90
2009,06,17,02,53,14.90
2009,06,17,02,54,14.80
2009,06,17,02,55,14.70
2009,06,17,02,56,14.60
2009,06,17,02,57,14.60
2009,06,17,02,58,14.50
2009,06,17,02,59,14.40
2009,06,17,03,00,14.40
2009,06,17,03,01,14.30
2009,06,17,03,02,14.30
2009,06,17,03,03,14.20
2009,06,17,03,04,14.20
2009,06,17,03,05,14.10
2009,06,17,03,06,14.00
2009,06,17,03,07,13.90
2009,06,17,03,08,13.80
2009,06,17,03,09,13.80
2009,06,17,03,10,13.80
2009,06,17,03,11,13.80
2009,06,17,03,12,13.80
2009,06,17,03,13,13.80
2009,06,17,03,14,13.80
2009,06,17,03,15,13.80
2009,06,17,03,16,13.80
2009,06,17,03,17,13.80
2009,06,17,03,18,13.80
2009,06,17,03,19,13.80
2009,06,17,03,20,13.80
2009,06,17,03,21,13.80
2009,06,17,03,22,13.80
2009,06,17,03,23,13.80
2009,06,17,03,24,13.80
2009,06,17,03,25,13.80
2009,06,17,03,26,13.70
2009,06,17,03,27,13.70
2009,06,17,03,28,13.70
2009,06,17,03,29,13.70
2009,06,17,03,30,13.70
2009,06,17,03,31,13.70
2009,06,17,03,32,13.70
2009,06,17,03,33,13.60
2009,06,17,03,34,13.60
2009,06,17,03,35,13.60
2009,06,17,03,36,13.60
2009,06,17,03,37,13.60
2009,06,17,03,38,13.60
2009,06,17,03,39,13.60
2009,06,17,03,40,13.60
2009,06,17,03,41,13.60
2009,06,17,03,42,13.60
2009,06,17,03,43,13.60
2009,06,17,03,44,13.60
2009,06,17,03,45,13.60
2009,06,17,03,46,13.50
2009,06,17,03,47,13.60
2009,06,17,03,48,13.60
2009,06,17,03,49,13.60
2009,06,17,03,50,13.60
2009,06,17,03,51,13.60
2009,06,17,03,52,13.60
2009,06,17,03,53,13.60
2009,06,17,03,54,13.50
2009,06,17,03,55,13.60
2009,06,17,03,56,13.50
2009,06,17,03,57,13.50
2009,06,17,03,58,13.60
2009,06,17,03,59,13.50
2009,06,17,04,00,13.50
2009,06,17,04,01,13.50
2009,06,17,04,02,13.50
2009,06,17,04,03,13.50
2009,06,17,04,04,13.50
2009,06,17,04,05,13.50
2009,06,17,04,06,13.50
2009,06,17,04,07,13.50
2009,06,17,04,08,13.50
2009,06,17,04,09,13.50
2009,06,17,04,10,13.40
2009,06,17,04,11,13.40
2009,06,17,04,12,13.40
2009,06,17,04,13,13.40
2009,06,17,04,14,13.40
2009,06,17,04,15,13.40
2009,06,17,04,16,13.40
2009,06,17,04,17,13.40
2009,06,17,04,18,13.40
2009,06,17,04,19,13.40
2009,06,17,04,20,13.40
2009,06,17,04,21,13.40
2009,06,17,04,22,13.40
2009,06,17,04,23,13.40
2009,06,17,04,24,13.40
2009,06,17,04,25,13.40
2009,06,17,04,26,13.40
2009,06,17,04,27,13.40
2009,06,17,04,28,13.40
2009,06,17,04,29,13.40
2009,06,17,04,30,13.40
2009,06,17,04,31,13.40
2009,06,17,04,32,13.30
2009,06,17,04,33,13.30
2009,06,17,04,34,13.30
2009,06,17,04,35,13.30
2009,06,17,04,36,13.20
2009,06,17,04,37,13.20
2009,06,17,04,38,13.20
2009,06,17,04,39,13.20
2009,06,17,04,40,13.20
2009,06,17,04,41,13.20
2009,06,17,04,42,13.20
2009,06,17,04,43,13.20
2009,06,17,04,44,13.20
2009,06,17,04,45,13.20
2009,06,17,04,46,13.20
2009,06,17,04,47,13.20
2009,06,17,04,48,13.20
2009,06,17,04,49,13.20
2009,06,17,04,50,13.20
2009,06,17,04,51,13.20
2009,06,17,04,52,13.20
2009,06,17,04,53,13.20
2009,06,17,04,54,13.20
2009,06,17,04,55,13.20
2009,06,17,04,56,13.20
2009,06,17,04,57,13.20
2009,06,17,04,58,13.20
2009,06,17,04,59,13.20
2009,06,17,05,00,13.30
2009,06,17,05,01,13.30
2009,06,17,05,02,13.30
2009,06,17,05,03,13.30
2009,06,17,05,04,13.30
2009,06,17,05,05,13.30
2009,06,17,05,06,13.30
2009,06,17,05,07,13.40
2009,06,17,05,08,13.40
2009,06,17,05,09,13.40
2009,06,17,05,10,13.40
2009,06,17,05,11,13.40
2009,06,17,05,12,13.50
2009,06,17,05,13,13.50
2009,06,17,05,14,13.60
2009,06,17,05,15,13.60
2009,06,17,05,16,13.60
2009,06,17,05,17,13.70
2009,06,17,05,18,13.70
2009,06,17,05,19,13.70
2009,06,17,05,20,13.80
2009,06,17,05,21,13.80
2009,06,17,05,22,13.80
2009,06,17,05,23,13.80
2009,06,17,05,24,13.80
2009,06,17,05,25,13.90
2009,06,17,05,26,13.90
2009,06,17,05,27,13.90
2009,06,17,05,28,13.90
2009,06,17,05,29,13.90
2009,06,17,05,30,14.00
2009,06,17,05,31,14.00
2009,06,17,05,32,14.10
2009,06,17,05,33,14.10
2009,06,17,05,34,14.10
2009,06,17,05,35,14.10
2009,06,17,05,36,14.20
2009,06,17,05,37,14.20
2009,06,17,05,38,14.20
2009,06,17,05,39,14.20
2009,06,17,05,40,14.20
2009,06,17,05,41,14.20
2009,06,17,05,42,14.30
2009,06,17,05,43,14.30
2009,06,17,05,44,14.30
2009,06,17,05,45,14.30
2009,06,17,05,46,14.30
2009,06,17,05,47,14.30
2009,06,17,05,48,14.30
2009,06,17,05,49,14.30
2009,06,17,05,50,14.30
2009,06,17,05,51,14.30
2009,06,17,05,52,14.30
2009,06,17,05,53,14.30
2009,06,17,05,54,14.30
2009,06,17,05,55,14.30
2009,06,17,05,56,14.40
2009,06,17,05,57,14.40
2009,06,17,05,58,14.40
2009,06,17,05,59,14.40
2009,06,17,06,00,14.40
2009,06,17,06,01,14.40
2009,06,17,06,02,14.40
2009,06,17,06,03,14.40
2009,06,17,06,04,14.40
2009,06,17,06,05,14.40
2009,06,17,06,06,14.40
2009,06,17,06,07,14.40
2009,06,17,06,08,14.40
2009,06,17,06,09,14.40
2009,06,17,06,10,14.40
2009,06,17,06,11,14.40
2009,06,17,06,12,14.40
2009,06,17,06,13,14.40
2009,06,17,06,14,14.40
2009,06,17,06,15,14.40
2009,06,17,06,16,14.40
2009,06,17,06,17,14.40
2009,06,17,06,18,14.40
2009,06,17,06,19,14.40
2009,06,17,06,20,14.40
2009,06,17,06,21,14.40
2009,06,17,06,22,14.40
2009,06,17,06,23,14.40
2009,06,17,06,24,14.30
2009,06,17,06,25,14.40
2009,06,17,06,26,14.30
2009,06,17,06,27,14.30
2009,06,17,06,28,14.30
2009,06,17,06,29,14.30
2009,06,17,06,30,14.30
2009,06,17,06,31,14.30
2009,06,17,06,32,14.30
2009,06,17,06,33,14.30
2009,06,17,06,34,14.30
2009,06,17,06,35,14.30
2009,06,17,06,36,14.30
2009,06,17,06,37,14.30
2009,06,17,06,38,14.30
2009,06,17,06,39,14.30
2009,06,17,06,40,14.30
2009,06,17,06,41,14.20
2009,06,17,06,42,14.20
2009,06,17,06,43,14.20
2009,06,17,06,44,14.20
2009,06,17,06,45,14.20
2009,06,17,06,46,14.20
2009,06,17,06,47,14.20
2009,06,17,06,48,14.20
2009,06,17,06,49,14.20
2009,06,17,06,50,14.20
2009,06,17,06,51,14.30
2009,06,17,06,52,14.30
2009,06,17,06,53,14.30
2009,06,17,06,54,14.30
2009,06,17,06,55,14.30
2009,06,17,06,56,14.30
2009,06,17,06,57,14.30
2009,06,17,06,58,14.30
2009,06,17,06,59,14.30
2009,06,17,07,00,14.40
2009,06,17,07,01,14.40
2009,06,17,07,02,14.30
2009,06,17,07,03,14.30
2009,06,17,07,04,14.30
2009,06,17,07,05,14.30
2009,06,17,07,06,14.30
2009,06,17,07,07,14.30
2009,06,17,07,08,14.30
2009,06,17,07,09,14.30
2009,06,17,07,10,14.30
2009,06,17,07,11,14.30
2009,06,17,07,12,14.30
2009,06,17,07,13,14.30
2009,06,17,07,14,14.30
2009,06,17,07,15,14.30
2009,06,17,07,16,14.30
2009,06,17,07,17,14.30
2009,06,17,07,18,14.30
2009,06,17,07,19,14.30
2009,06,17,07,20,14.40
2009,06,17,07,21,14.40
2009,06,17,07,22,14.40
2009,06,17,07,23,14.40
2009,06,17,07,24,14.40
2009,06,17,07,25,14.40
2009,06,17,07,26,14.40
2009,06,17,07,27,14.40
2009,06,17,07,28,14.50
2009,06,17,07,29,14.50
2009,06,17,07,30,14.50
2009,06,17,07,31,14.50
2009,06,17,07,32,14.60
2009,06,17,07,33,14.60
2009,06,17,07,34,14.60
2009,06,17,07,35,14.60
2009,06,17,07,36,14.60
2009,06,17,07,37,14.70
2009,06,17,07,38,14.70
2009,06,17,07,39,14.70
2009,06,17,07,40,14.70
2009,06,17,07,41,14.70
2009,06,17,07,42,14.80
2009,06,17,07,43,14.80
2009,06,17,07,44,14.80
2009,06,17,07,45,14.80
2009,06,17,07,46,14.80
2009,06,17,07,47,14.90
2009,06,17,07,48,14.90
2009,06,17,07,49,14.90
2009,06,17,07,50,14.90
2009,06,17,07,51,15.00
2009,06,17,07,52,15.00
2009,06,17,07,53,15.00
2009,06,17,07,54,15.00
2009,06,17,07,55,15.10
2009,06,17,07,56,15.10
2009,06,17,07,57,15.10
2009,06,17,07,58,15.10
2009,06,17,07,59,15.10
2009,06,17,08,00,15.10
2009,06,17,08,01,15.10
2009,06,17,08,02,15.20
2009,06,17,08,03,15.20
2009,06,17,08,04,15.20
2009,06,17,08,05,15.20
2009,06,17,08,06,15.20
2009,06,17,08,07,15.20
2009,06,17,08,08,15.20
2009,06,17,08,09,15.20
2009,06,17,08,10,15.20
2009,06,17,08,11,15.20
2009,06,17,08,12,15.20
2009,06,17,08,13,15.20
2009,06,17,08,14,15.20
2009,06,17,08,15,15.20
2009,06,17,08,16,15.20
2009,06,17,08,17,15.20
2009,06,17,08,18,15.20
2009,06,17,08,19,15.20
2009,06,17,08,20,15.20
2009,06,17,08,21,15.20
2009,06,17,08,22,15.20
2009,06,17,08,23,15.20
2009,06,17,08,24,15.20
2009,06,17,08,25,15.20
2009,06,17,08,26,15.20
2009,06,17,08,27,15.20
2009,06,17,08,28,15.20
2009,06,17,08,29,15.20
2009,06,17,08,30,15.30
2009,06,17,08,31,15.30
2009,06,17,08,32,15.30
2009,06,17,08,33,15.30
2009,06,17,08,34,15.30
2009,06,17,08,35,15.30
2009,06,17,08,36,15.30
2009,06,17,08,37,15.30
2009,06,17,08,38,15.40
2009,06,17,08,39,15.40
2009,06,17,08,40,15.40
2009,06,17,08,41,15.40
2009,06,17,08,42,15.40
2009,06,17,08,43,15.40
2009,06,17,08,44,15.40
2009,06,17,08,45,15.40
2009,06,17,08,46,15.40
2009,06,17,08,47,15.40
2009,06,17,08,48,15.40
2009,06,17,08,49,15.50
2009,06,17,08,50,15.50
2009,06,17,08,51,15.50
2009,06,17,08,52,15.50
2009,06,17,08,53,15.50
2009,06,17,08,54,15.50
2009,06,17,08,55,15.50
2009,06,17,08,56,15.60
2009,06,17,08,57,15.60
2009,06,17,08,58,15.60
2009,06,17,08,59,15.70
2009,06,17,09,00,15.70
2009,06,17,09,01,15.70
2009,06,17,09,02,15.70
2009,06,17,09,03,15.80
2009,06,17,09,04,15.80
2009,06,17,09,05,15.90
2009,06,17,09,06,16.00
2009,06,17,09,07,16.10
2009,06,17,09,08,16.20
2009,06,17,09,09,16.30
2009,06,17,09,10,16.40
2009,06,17,09,11,16.60
2009,06,17,09,12,16.60
2009,06,17,09,13,16.70
2009,06,17,09,14,16.80
2009,06,17,09,15,16.90
2009,06,17,09,16,17.00
2009,06,17,09,17,17.00
2009,06,17,09,18,17.10
2009,06,17,09,19,17.10
2009,06,17,09,20,17.20
2009,06,17,09,21,17.20
2009,06,17,09,22,17.20
2009,06,17,09,23,17.20
2009,06,17,09,24,17.20
2009,06,17,09,25,17.20
2009,06,17,09,26,17.20
2009,06,17,09,27,17.20
2009,06,17,09,28,17.20
2009,06,17,09,29,17.20
2009,06,17,09,30,17.10
2009,06,17,09,31,17.10
2009,06,17,09,32,17.10
2009,06,17,09,33,17.10
2009,06,17,09,34,17.10
2009,06,17,09,35,17.10
2009,06,17,09,36,17.10
2009,06,17,09,37,17.10
2009,06,17,09,38,17.10
2009,06,17,09,39,17.10
2009,06,17,09,40,17.10
2009,06,17,09,41,17.10
2009,06,17,09,42,17.20
2009,06,17,09,43,17.20
2009,06,17,09,44,17.20
2009,06,17,09,45,17.20
2009,06,17,09,46,17.20
2009,06,17,09,47,17.30
2009,06,17,09,48,17.30
2009,06,17,09,49,17.30
2009,06,17,09,50,17.40
2009,06,17,09,51,17.50
2009,06,17,09,52,17.50
2009,06,17,09,53,17.50
2009,06,17,09,54,17.50
2009,06,17,09,55,17.40
2009,06,17,09,56,17.40
2009,06,17,09,57,17.40
2009,06,17,09,58,17.40
2009,06,17,09,59,17.40
2009,06,17,10,00,17.40
2009,06,17,10,01,17.40
2009,06,17,10,02,17.50
2009,06,17,10,03,17.50
2009,06,17,10,04,17.50
2009,06,17,10,05,17.60
2009,06,17,10,06,17.60
2009,06,17,10,07,17.60
2009,06,17,10,08,17.60
2009,06,17,10,09,17.60
2009,06,17,10,10,17.60
2009,06,17,10,11,17.60
2009,06,17,10,12,17.60
2009,06,17,10,13,17.60
2009,06,17,10,14,17.60
2009,06,17,10,15,17.60
2009,06,17,10,16,17.60
2009,06,17,10,17,17.60
2009,06,17,10,18,17.60
2009,06,17,10,19,17.50
2009,06,17,10,20,17.50
2009,06,17,10,21,17.50
2009,06,17,10,22,17.50
2009,06,17,10,23,17.50
2009,06,17,10,24,17.50
2009,06,17,10,25,17.50
2009,06,17,10,26,17.50
2009,06,17,10,27,17.50
2009,06,17,10,28,17.60
2009,06,17,10,29,17.60
2009,06,17,10,30,17.60
2009,06,17,10,31,17.60
2009,06,17,10,32,17.60
2009,06,17,10,33,17.60
2009,06,17,10,34,17.60
2009,06,17,10,35,17.70
2009,06,17,10,36,17.70
2009,06,17,10,37,17.70
2009,06,17,10,38,17.80
2009,06,17,10,39,17.80
2009,06,17,10,40,17.90
2009,06,17,10,41,17.90
2009,06,17,10,42,17.80
2009,06,17,10,43,17.90
2009,06,17,10,44,17.90
2009,06,17,10,45,17.90
2009,06,17,10,46,17.80
2009,06,17,10,47,17.80
2009,06,17,10,48,17.80
2009,06,17,10,49,17.70
2009,06,17,10,50,17.70
2009,06,17,10,51,17.80
2009,06,17,10,52,17.80
2009,06,17,10,53,17.80
2009,06,17,10,54,17.80
2009,06,17,10,55,17.80
2009,06,17,10,56,17.90
2009,06,17,10,57,17.90
2009,06,17,10,58,18.00
2009,06,17,10,59,18.00
2009,06,17,11,00,18.10
2009,06,17,11,01,18.20
2009,06,17,11,02,18.30
2009,06,17,11,03,18.30
2009,06,17,11,04,18.20
2009,06,17,11,05,18.10
2009,06,17,11,06,18.10
2009,06,17,11,07,18.10
2009,06,17,11,08,18.10
2009,06,17,11,09,18.10
2009,06,17,11,10,18.20
2009,06,17,11,11,18.30
2009,06,17,11,12,18.40
2009,06,17,11,13,18.50
2009,06,17,11,14,18.60
2009,06,17,11,15,18.70
2009,06,17,11,16,18.80
2009,06,17,11,17,18.80
2009,06,17,11,18,18.80
2009,06,17,11,19,18.90
2009,06,17,11,20,18.90
2009,06,17,11,21,18.90
2009,06,17,11,22,18.90
2009,06,17,11,23,18.90
2009,06,17,11,24,18.90
2009,06,17,11,25,18.90
2009,06,17,11,26,18.90
2009,06,17,11,27,18.90
2009,06,17,11,28,18.90
2009,06,17,11,29,18.90
2009,06,17,11,30,18.90
2009,06,17,11,31,18.80
2009,06,17,11,32,18.80
2009,06,17,11,33,18.80
2009,06,17,11,34,18.70
2009,06,17,11,35,18.70
2009,06,17,11,36,18.70
2009,06,17,11,37,18.70
2009,06,17,11,38,18.70
2009,06,17,11,39,18.80
2009,06,17,11,40,18.80
2009,06,17,11,41,18.90
2009,06,17,11,42,18.90
2009,06,17,11,43,19.00
2009,06,17,11,44,19.00
2009,06,17,11,45,19.10
2009,06,17,11,46,19.10
2009,06,17,11,47,19.10
2009,06,17,11,48,19.20
2009,06,17,11,49,19.20
2009,06,17,11,50,19.20
2009,06,17,11,51,19.20
2009,06,17,11,52,19.30
2009,06,17,11,53,19.30
2009,06,17,11,54,19.30
2009,06,17,11,55,19.30
2009,06,17,11,56,19.40
2009,06,17,11,57,19.40
2009,06,17,11,58,19.50
2009,06,17,11,59,19.50
2009,06,17,12,00,19.60
2009,06,17,12,01,19.60
2009,06,17,12,02,19.70
2009,06,17,12,03,19.70
2009,06,17,12,04,19.70
2009,06,17,12,05,19.60
2009,06,17,12,06,19.60
2009,06,17,12,07,19.60
2009,06,17,12,08,19.60
2009,06,17,12,09,19.60
2009,06,17,12,10,19.60
2009,06,17,12,11,19.70
2009,06,17,12,12,19.70
2009,06,17,12,13,19.80
2009,06,17,12,14,19.80
2009,06,17,12,15,19.80
2009,06,17,12,16,19.80
2009,06,17,12,17,19.70
2009,06,17,12,18,19.60
2009,06,17,12,19,19.60
2009,06,17,12,20,19.60
2009,06,17,12,21,19.60
2009,06,17,12,22,19.60
2009,06,17,12,23,19.60
2009,06,17,12,24,19.60
2009,06,17,12,25,19.60
2009,06,17,12,26,19.60
2009,06,17,12,27,19.70
2009,06,17,12,28,19.80
2009,06,17,12,29,19.90
2009,06,17,12,30,20.00
2009,06,17,12,31,20.10
2009,06,17,12,32,20.20
2009,06,17,12,33,20.20
2009,06,17,12,34,20.30
2009,06,17,12,35,20.40
2009,06,17,12,36,20.50
2009,06,17,12,37,20.70
2009,06,17,12,38,20.80
2009,06,17,12,39,21.00
2009,06,17,12,40,21.10
2009,06,17,12,41,21.10
2009,06,17,12,42,21.10
2009,06,17,12,43,21.20
2009,06,17,12,44,21.20
2009,06,17,12,45,21.10
2009,06,17,12,46,21.10
2009,06,17,12,47,21.10
2009,06,17,12,48,21.10
2009,06,17,12,49,21.10
2009,06,17,12,50,21.10
2009,06,17,12,51,21.20
2009,06,17,12,52,21.20
2009,06,17,12,53,21.30
2009,06,17,12,54,21.40
2009,06,17,12,55,21.50
2009,06,17,12,56,21.60
2009,06,17,12,57,21.50
2009,06,17,12,58,21.40
2009,06,17,12,59,21.50
2009,06,17,13,00,21.50
2009,06,17,13,01,21.60
2009,06,17,13,02,21.70
2009,06,17,13,03,21.70
2009,06,17,13,04,21.50
2009,06,17,13,05,21.20
2009,06,17,13,06,21.00
2009,06,17,13,07,20.90
2009,06,17,13,08,20.80
2009,06,17,13,09,20.70
2009,06,17,13,10,20.50
2009,06,17,13,11,20.40
2009,06,17,13,12,20.40
2009,06,17,13,13,20.40
2009,06,17,13,14,20.30
2009,06,17,13,15,20.30
2009,06,17,13,16,20.10
2009,06,17,13,17,19.90
2009,06,17,13,18,19.60
2009,06,17,13,19,19.40
2009,06,17,13,20,19.20
2009,06,17,13,21,19.10
2009,06,17,13,22,19.10
2009,06,17,13,23,19.10
2009,06,17,13,24,19.00
2009,06,17,13,25,19.00
2009,06,17,13,26,19.00
2009,06,17,13,27,18.90
2009,06,17,13,28,18.80
2009,06,17,13,29,18.90
2009,06,17,13,30,18.90
2009,06,17,13,31,19.00
2009,06,17,13,32,19.10
2009,06,17,13,33,19.20
2009,06,17,13,34,19.30
2009,06,17,13,35,19.40
2009,06,17,13,36,19.40
2009,06,17,13,37,19.40
2009,06,17,13,38,19.40
2009,06,17,13,39,19.40
2009,06,17,13,40,19.40
2009,06,17,13,41,19.30
2009,06,17,13,42,19.20
2009,06,17,13,43,19.20
2009,06,17,13,44,19.20
2009,06,17,13,45,19.20
2009,06,17,13,46,19.20
2009,06,17,13,47,19.20
2009,06,17,13,48,19.30
2009,06,17,13,49,19.30
2009,06,17,13,50,19.30
2009,06,17,13,51,19.20
2009,06,17,13,52,19.20
2009,06,17,13,53,19.20
2009,06,17,13,54,19.10
2009,06,17,13,55,19.10
2009,06,17,13,56,19.10
2009,06,17,13,57,19.10
2009,06,17,13,58,19.10
2009,06,17,13,59,19.10
2009,06,17,14,00,19.00
2009,06,17,14,01,18.90
2009,06,17,14,02,18.90
2009,06,17,14,03,18.70
2009,06,17,14,04,18.70
2009,06,17,14,05,18.70
2009,06,17,14,06,18.80
2009,06,17,14,07,18.90
2009,06,17,14,08,19.10
2009,06,17,14,09,19.20
2009,06,17,14,10,19.30
2009,06,17,14,11,19.40
2009,06,17,14,12,19.50
2009,06,17,14,13,19.70
2009,06,17,14,14,20.00
2009,06,17,14,15,20.30
2009,06,17,14,16,20.40
2009,06,17,14,17,20.50
2009,06,17,14,18,20.60
2009,06,17,14,19,20.70
2009,06,17,14,20,20.80
2009,06,17,14,21,20.90
2009,06,17,14,22,21.00
2009,06,17,14,23,20.90
2009,06,17,14,24,20.90
2009,06,17,14,25,20.90
2009,06,17,14,26,21.10
2009,06,17,14,27,21.20
2009,06,17,14,28,21.30
2009,06,17,14,29,21.00
2009,06,17,14,30,20.70
2009,06,17,14,31,20.60
2009,06,17,14,32,20.60
2009,06,17,14,33,20.60
2009,06,17,14,34,20.60
2009,06,17,14,35,20.60
2009,06,17,14,36,20.60
2009,06,17,14,37,20.50
2009,06,17,14,38,20.50
2009,06,17,14,39,20.50
2009,06,17,14,40,20.60
2009,06,17,14,41,20.60
2009,06,17,14,42,20.60
2009,06,17,14,43,20.70
2009,06,17,14,44,20.90
2009,06,17,14,45,21.00
2009,06,17,14,46,21.20
2009,06,17,14,47,21.40
2009,06,17,14,48,21.60
2009,06,17,14,49,21.70
2009,06,17,14,50,21.90
2009,06,17,14,51,22.00
2009,06,17,14,52,22.30
2009,06,17,14,53,22.50
2009,06,17,14,54,22.80
2009,06,17,14,55,23.10
2009,06,17,14,56,23.30
2009,06,17,14,57,23.40
2009,06,17,14,58,23.50
2009,06,17,14,59,23.50
2009,06,17,15,00,23.60
2009,06,17,15,01,23.60
2009,06,17,15,02,23.70
2009,06,17,15,03,23.80
2009,06,17,15,04,23.70
2009,06,17,15,05,23.80
2009,06,17,15,06,23.90
2009,06,17,15,07,23.90
2009,06,17,15,08,24.00
2009,06,17,15,09,24.10
2009,06,17,15,10,24.10
2009,06,17,15,11,24.00
2009,06,17,15,12,23.90
2009,06,17,15,13,23.80
2009,06,17,15,14,23.60
2009,06,17,15,15,23.60
2009,06,17,15,16,23.60
2009,06,17,15,17,23.60
2009,06,17,15,18,23.60
2009,06,17,15,19,23.50
2009,06,17,15,20,23.40
2009,06,17,15,21,23.40
2009,06,17,15,22,23.30
2009,06,17,15,23,23.20
2009,06,17,15,24,23.10
2009,06,17,15,25,23.10
2009,06,17,15,26,23.20
2009,06,17,15,27,23.40
2009,06,17,15,28,23.60
2009,06,17,15,29,23.70
2009,06,17,15,30,23.80
2009,06,17,15,31,23.80
2009,06,17,15,32,23.90
2009,06,17,15,33,23.80
2009,06,17,15,34,23.80
2009,06,17,15,35,23.70
2009,06,17,15,36,23.60
2009,06,17,15,37,23.40
2009,06,17,15,38,23.40
2009,06,17,15,39,23.50
2009,06,17,15,40,23.50
2009,06,17,15,41,23.60
2009,06,17,15,42,23.60
2009,06,17,15,43,23.50
2009,06,17,15,44,23.40
2009,06,17,15,45,23.40
2009,06,17,15,46,23.20
2009,06,17,15,47,23.20
2009,06,17,15,48,23.10
2009,06,17,15,49,23.10
2009,06,17,15,50,23.20
2009,06,17,15,51,23.20
2009,06,17,15,52,23.30
2009,06,17,15,53,23.10
2009,06,17,15,54,23.00
2009,06,17,15,55,22.80
2009,06,17,15,56,22.30
2009,06,17,15,57,22.00
2009,06,17,15,58,21.90
2009,06,17,15,59,21.80
2009,06,17,16,00,21.90
2009,06,17,16,01,22.10
2009,06,17,16,02,22.30
2009,06,17,16,03,22.40
2009,06,17,16,04,22.60
2009,06,17,16,05,22.70
2009,06,17,16,06,22.80
2009,06,17,16,07,22.70
2009,06,17,16,08,22.60
2009,06,17,16,09,22.40
2009,06,17,16,10,22.40
2009,06,17,16,11,22.40
2009,06,17,16,12,22.50
2009,06,17,16,13,22.60
2009,06,17,16,14,22.60
2009,06,17,16,15,22.70
2009,06,17,16,16,22.80
2009,06,17,16,17,22.80
2009,06,17,16,18,22.80
2009,06,17,16,19,22.90
2009,06,17,16,20,23.00
2009,06,17,16,21,23.20
2009,06,17,16,22,23.40
2009,06,17,16,23,23.50
2009,06,17,16,24,23.60
2009,06,17,16,25,23.60
2009,06,17,16,26,23.50
2009,06,17,16,27,23.40
2009,06,17,16,28,23.30
2009,06,17,16,29,23.20
2009,06,17,16,30,23.10
2009,06,17,16,31,23.10
2009,06,17,16,32,23.00
2009,06,17,16,33,23.00
2009,06,17,16,34,23.10
2009,06,17,16,35,23.10
2009,06,17,16,36,23.20
2009,06,17,16,37,23.30
2009,06,17,16,38,23.40
2009,06,17,16,39,23.50
2009,06,17,16,40,23.50
2009,06,17,16,41,23.50
2009,06,17,16,42,23.40
2009,06,17,16,43,23.30
2009,06,17,16,44,23.20
2009,06,17,16,45,23.20
2009,06,17,16,46,23.30
2009,06,17,16,47,23.30
2009,06,17,16,48,23.20
2009,06,17,16,49,23.10
2009,06,17,16,50,23.00
2009,06,17,16,51,22.90
2009,06,17,16,52,22.80
2009,06,17,16,53,22.80
2009,06,17,16,54,22.80
2009,06,17,16,55,22.80
2009,06,17,16,56,22.80
2009,06,17,16,57,22.80
2009,06,17,16,58,22.80
2009,06,17,16,59,22.70
2009,06,17,17,00,22.50
2009,06,17,17,01,22.40
2009,06,17,17,02,22.40
2009,06,17,17,03,22.30
2009,06,17,17,04,22.30
2009,06,17,17,05,22.30
2009,06,17,17,06,22.30
2009,06,17,17,07,22.30
2009,06,17,17,08,22.30
2009,06,17,17,09,22.30
2009,06,17,17,10,22.20
2009,06,17,17,11,22.20
2009,06,17,17,12,22.10
2009,06,17,17,13,22.10
2009,06,17,17,14,22.20
2009,06,17,17,15,22.30
2009,06,17,17,16,22.30
2009,06,17,17,17,22.30
2009,06,17,17,18,22.30
2009,06,17,17,19,22.40